Location: Lafig�re
(44.4503°N, 4.0357°E)
Time: 10:28:31
(UTC+00:00)

Cosmos 2150 Rocket - Pass Details

Date: 25 January 2021
Orbit: 748 x 808 km, 74.0° (Epoch: 07 March)

Event Time Altitude Azimuth Distance (km) Brightness Sun altitude
Rises 20:18:52 0° 224° (SW) 3,184 7.6 -38.2°
Reaches altitude 10° 20:21:23 10° 233° (SW) 2,267 6.8 -38.7°
Enters shadow 20:21:54 13° 236° (SW) 2,092 6.6 -38.8°
